Location: Dumpton Point
(51.3500°N, 1.4433°E)
Time: 02:05:17
(UTC+00:00)

USA 234 - Pass Details

Date: 09 April 2020
Orbit: 1102 x 1106 km, 123.0° (Epoch: 14 May)

Event Time Altitude Azimuth Distance (km) Brightness Sun altitude
Rises 23:17:49 0° 64° (ENE) 3,925 6.3 -30.1°
Reaches altitude 10° 23:20:19 10° 62° (ENE) 2,966 5.7 -30.1°
Maximum altitude 23:26:48 68° 342° (NNW) 1,183 3.5 -30.3°
Drops below altitude 10° 23:33:17 10° 261° (W) 2,962 5.5 -30.4°
Sets 23:35:46 0° 259° (W) 3,919 6.1 -30.5°
